Zurück zum Katalog

ATLAS 2AS CENTAUR R/B

AktivGTO
NORAD 24937·ROCKET BODY·🇺🇸 United States

Gestartet Sep 4, 1997 von Cape Canaveral Space Force Station

Loading…

TLE

AktuellSource: Space-Track

Epoche: Sep 14, 2026, 19:28 UTC

1 24937U 97050B   26257.81144033  .00001926  00000-0  12928-2 0  9994
2 24937  18.6653 276.3910 7281065  30.9267 356.6679  2.25840756217078

Verfolge ATLAS 2AS CENTAUR R/B in Echtzeit mit AllMySat

Download on the App Store